Location: Paralde Spring
(38.5794°N, 119.0140°W)
Time: 23:09:10
(UTC+00:00)

Cosmos 1238 Rocket - Pass Details

Date: 18 September 2020
Orbit: 375 x 1027 km, 82.9° (Epoch: 20 October)

Event Time Altitude Azimuth Distance (km) Brightness Sun altitude
Rises 12:15:35 0° 345° (NNW) 3,786 7.1 -17.2°
Reaches altitude 10° 12:18:20 10° 339° (NNW) 2,822 6.4 -16.7°
Maximum altitude 12:24:27 42° 272° (W) 1,371 4.3 -15.5°
Drops below altitude 10° 12:30:05 10° 203° (SSW) 2,587 5.9 -14.5°
Sets 12:32:31 0° 197° (SSW) 3,441 6.6 -14.0°
